Regional Weather Roundup
Issued by NWS

Home | Current Version | Previous Version | Graphics & Text | Print | Product List | Glossary On
Versions: 1 2 3 4 5 6 7 8 9 10 11 12 13 14 15 16 17 18 19 20 21 22 23 24 25 26 27 28 29 30 31 32 33 34 35 36 37 38 39 40 41 42 43 44 45 46 47 48 49 50
254
ASUS45 KCYS 242210
RWRWY

WYOMING REGIONAL WEATHER ROUNDUP
NATIONAL WEATHER SERVICE CHEYENNE WY
400 PM MDT SAT SEP 24 2016

NOTE:  "FAIR" INDICATES FEW OR NO CLOUDS BELOW 12,000 FEET
WITH NO SIGNIFICANT WEATHER AND/OR OBSTRUCTIONS TO VISIBILITY.

WYZ001-242300-
YELLOWSTONE NATIONAL PARK

CITY           SKY/WX    TMP DP  RH WIND       PRES   REMARKS
LK YELLOWSTONE   N/A     44  31  60 CALM      30.26R
W YELLOWSTONE  NOT AVBL

$$
WYZ002>013-054>058-071-098>099-242300-
NORTHERN WYOMING

CITY           SKY/WX    TMP DP  RH WIND       PRES   REMARKS
JACKSON        PTSUNNY   52  32  46 SW9       30.23
CODY           CLOUDY    48  43  81 CALM      30.16R
GREYBULL       LGT RAIN  49  46  90 S5        30.13R
WORLAND        LGT RAIN  49  46  90 SW9       30.14R
SHERIDAN       LGT RAIN  49  44  83 W13       30.06S
BUFFALO        LGT RAIN  45  40  82 NW7       30.08R
GILLETTE       LGT RAIN  44  42  93 W26G36    30.01S
HULETT         LGT RAIN  43  41  93 W15G28    29.99R
NEWCASTLE      DRIZZLE   46  41  81 NW20G28   30.03R

$$
WYZ014>020-022>026-101>103-242300-
CENTRAL WYOMING

CITY           SKY/WX    TMP DP  RH WIND       PRES   REMARKS
BIG PINEY      FAIR      51  30  44 N24G36    30.24R
PINEDALE       CLOUDY    46  34  61 NW22G32   30.24R
DUBOIS         FAIR      48  34  57 NW21G30   30.19R
LANDER         PTSUNNY   48  40  73 SE14      30.18R
RIVERTON       CLOUDY    46  43  89 S7        30.20R
CASPER         CLOUDY    48  42  80 W17       30.14R
DOUGLAS        CLOUDY    50  43  77 W20G30    30.10R

$$
WYZ021-027>030-104>119-242300-
SOUTHERN WYOMING

CITY           SKY/WX    TMP DP  RH WIND       PRES   REMARKS
EVANSTON       CLOUDY    47  33  58 W9        30.31R
FORT BRIDGER   CLOUDY    50  36  59 NW12G21   30.32R
ROCK SPRINGS   LGT RAIN  45  41  86 NW6       30.23R
DIXON          CLOUDY    46  41  84 W12       30.26R
RAWLINS        CLOUDY    45  36  70 NW17      30.21R
SARATOGA       CLOUDY    46  34  61 W14G20    30.22R
LARAMIE        CLOUDY    51  31  46 W21G29    30.13R
CHEYENNE       CLOUDY    59  29  31 W15       30.08R
TORRINGTON     FAIR      64  39  39 NW18G28   30.00R
PINE BLUFFS    MOCLDY    66  30  26 W13G21    30.04R

$$




USA.gov is the U.S. government's official web portal to all federal, state and local government web resources and services.